Location: McCall
(45.0000°N, 116.0000°W)
Time: 17:17:35
(UTC-07:00)

Amateur Radio Satellites - All Passes

Search period start: 02 December 2016 16:47
Search period end: 03 December 2016 16:47
Location: McCall, 45.0000°N, 116.0000°W

Satellite Date Start Highest point End Downlink Frequencies (MHz)
Time Altitude Azimuth
AO-7 02 Dec 16:49:36 16:56:30 29° 266° (W) 17:03:29 29.400- 29.500
Cubesat XI-IV 02 Dec 16:59:54 17:04:08 24° 62° (ENE) 17:08:22 437.490
KKS-1 02 Dec 17:01:49 17:06:19 72° 102° (ESE) 17:10:48 437.445
LilacSat-2 02 Dec 17:02:34 17:05:09 17° 65° (ENE) 17:07:43 437.200
NOAA 15 02 Dec 17:10:42 17:15:17 32° 65° (ENE) 17:19:53 137.62
DOVE 4 02 Dec 17:14:17 17:17:53 22° 62° (ENE) 17:21:38 437.250
HORYU 2 02 Dec 17:16:12 17:20:42 85° 254° (WSW) 17:25:13 437.375
STARS 02 Dec 17:18:58 17:23:19 51° 100° (E) 17:27:37 437.465
RS-15 02 Dec 17:19:05 17:31:35 80° 53° (NE) 17:43:41 29.354- 29.394
CUBESAT XI-V 02 Dec 17:31:21 17:35:54 51° 99° (E) 17:40:27 437.345
HO-68 02 Dec 17:38:55 17:43:25 18° 50° (NE) 17:47:57 435.675
MOZHAYETS 4 02 Dec 17:40:19 17:43:51 23° 295° (WNW) 17:47:23
O/OREOS (USA 219) 02 Dec 17:42:58 17:47:32 81° 293° (WNW) 17:52:08 437.305
NOAA 18 02 Dec 17:49:50 17:55:02 44° 67° (ENE) 18:00:16 137.9125
Cosmos 2491 02 Dec 18:02:59 18:10:59 38° 69° (ENE) 18:18:54 435.465 / 435.565
ISS 02 Dec 18:06:48 18:09:43 30° 140° (SE) 18:12:40 145.825
CUTE-I 02 Dec 18:13:43 18:19:07 84° 258° (WSW) 18:24:31 437.470
GOMX 1 02 Dec 18:20:45 18:24:59 42° 263° (W) 18:29:33 467.674
AIST 2 02 Dec 18:24:48 18:29:03 82° 238° (WSW) 18:33:16 435.215
BRITE-PL 02 Dec 18:27:13 18:29:44 15° 271° (W) 18:32:21 437.365/2234.400
LilacSat-2 02 Dec 18:35:29 18:39:09 40° 262° (W) 18:42:48 437.200
YUBILEINY 02 Dec 18:36:41 18:42:52 22° 78° (ENE) 18:49:04 435.215
Cubesat XI-IV 02 Dec 18:38:37 18:43:51 53° 260° (W) 18:49:08 437.490
CUTE 1.7 + AOD 2 02 Dec 18:39:43 18:42:54 21° 65° (ENE) 18:46:04 437.475
KKS-1 02 Dec 18:39:58 18:42:19 14° 300° (WNW) 18:44:38 437.445
NOAA 15 02 Dec 18:50:10 18:54:59 37° 263° (W) 18:59:50 137.62
DOVE 4 02 Dec 18:50:36 18:55:09 50° 262° (W) 19:00:02 437.250
CANX-2 02 Dec 18:56:06 18:59:56 35° 70° (ENE) 19:03:47 2200.000
STARS 02 Dec 18:56:16 18:59:16 18° 298° (WNW) 19:02:17 437.465
CINEMA 3 02 Dec 18:59:49 19:04:37 58° 73° (ENE) 19:09:33 145.822/145.860
UWE-3 02 Dec 19:01:43 19:03:34 12° 59° (ENE) 19:05:25 435.000/436.395/437.385
CUBESAT XI-V 02 Dec 19:09:36 19:12:55 20° 297° (WNW) 19:16:14 437.345
AAUSAT CUBESAT 2 02 Dec 19:22:10 19:25:16 21° 66° (ENE) 19:28:24 437.432
HO-68 02 Dec 19:22:54 19:30:02 78° 71° (ENE) 19:37:14 435.675
O/OREOS (USA 219) 02 Dec 19:25:52 19:27:44 12° 314° (NW) 19:29:36 437.305
SEEDS 02 Dec 19:29:30 19:33:30 46° 72° (ENE) 19:37:31 437.485
NOAA 18 02 Dec 19:31:05 19:35:49 29° 265° (W) 19:40:38 137.9125
RS-15 02 Dec 19:32:37 19:42:53 33° 256° (WSW) 19:52:54 29.354- 29.394
STRAND 1 02 Dec 19:34:45 19:39:25 35° 97° (E) 19:44:03 437.568
ISS 02 Dec 19:42:55 19:46:08 48° 338° (NNW) 19:49:22 145.825
AIST 1 02 Dec 19:43:21 19:45:30 14° 84° (E) 19:47:39
CUBEBUG 2 02 Dec 19:44:11 19:48:42 44° 71° (ENE) 19:53:13 437.445
COMPASS 1 02 Dec 19:47:22 19:51:21 49° 72° (ENE) 19:55:21 437.405
ZACube-1 02 Dec 19:49:45 19:53:14 22° 65° (ENE) 19:56:41 437.345
CUTE-I 02 Dec 19:58:11 19:59:56 11° 273° (W) 20:01:41 437.470
FUNcube-1 02 Dec 19:59:28 20:03:09 25° 66° (ENE) 20:06:49 145.935
Cosmos 2491 02 Dec 19:59:44 20:08:05 53° 271° (W) 20:16:24 435.465 / 435.565
Cosmos 2504 02 Dec 20:11:24 20:19:01 42° 86° (E) 20:27:03 435.465 / 435.565
CUTE 1.7 + AOD 2 02 Dec 20:14:33 20:18:30 38° 263° (W) 20:22:28 437.475
PCSat 02 Dec 20:29:13 20:33:36 24° 42° (NE) 20:37:58 145.827
YUBILEINY 02 Dec 20:29:50 20:38:33 83° 279° (W) 20:47:22 435.215
CANX-2 02 Dec 20:32:33 20:35:52 22° 267° (W) 20:39:13 2200.000
Oscar 11 02 Dec 20:34:32 20:38:43 51° 72° (ENE) 20:42:55 145.826/435.025
UWE-3 02 Dec 20:34:38 20:39:20 89° 250° (WSW) 20:44:00 435.000/436.395/437.385
CINEMA 3 02 Dec 20:38:46 20:42:08 18° 271° (W) 20:45:33 145.822/145.860
DELFI C3 02 Dec 20:53:48 20:57:11 28° 69° (ENE) 21:00:35 145.870
AAUSAT CUBESAT 2 02 Dec 20:56:45 21:00:33 36° 263° (W) 21:04:22 437.432
SEEDS 02 Dec 21:06:47 21:09:27 16° 269° (W) 21:12:07 437.485
SO-50 02 Dec 21:09:27 21:13:43 33° 116° (ESE) 21:17:56 436.795
HO-68 02 Dec 21:13:16 21:18:29 21° 270° (W) 21:23:45 435.675
STRAND 1 02 Dec 21:14:02 21:18:32 32° 294° (WNW) 21:22:59 437.568
AIST 1 02 Dec 21:18:21 21:22:33 56° 281° (WNW) 21:26:51
ISS 02 Dec 21:20:20 21:23:09 25° 357° (N) 21:25:58 145.825
CUBEBUG 2 02 Dec 21:21:47 21:25:29 22° 268° (W) 21:29:12 437.445
COMPASS 1 02 Dec 21:24:43 21:27:11 15° 269° (W) 21:29:39 437.405
ZACube-1 02 Dec 21:24:52 21:29:14 43° 262° (W) 21:33:34 437.345
CUSAT 1 02 Dec 21:31:54 21:35:09 75° 260° (W) 21:39:20 437.405
FUNcube-1 02 Dec 21:34:59 21:39:13 37° 263° (W) 21:43:25 145.935
DANDE 02 Dec 21:41:40 21:43:51 22° 75° (ENE) 21:46:13 436.750
HUMSAT D 02 Dec 21:50:13 21:54:26 66° 74° (ENE) 21:58:36 437.325/437.525
TIGRISAT 02 Dec 22:01:19 22:04:14 17° 90° (E) 22:07:06 435.000
ANTELSAT 02 Dec 22:01:39 22:04:44 18° 91° (E) 22:07:45 437.575/2403.000
Cosmos 2504 02 Dec 22:04:21 22:12:18 47° 288° (WNW) 22:20:45 435.465 / 435.565
ESTCUBE 1 02 Dec 22:04:44 22:07:36 17° 62° (ENE) 22:10:27 437.505/2401.250
PRISM 02 Dec 22:05:16 22:09:27 86° 107° (ESE) 22:13:36 437.425
PCSat 02 Dec 22:12:06 22:17:31 69° 242° (WSW) 22:22:53 145.827
Oscar 11 02 Dec 22:12:25 22:15:09 16° 269° (W) 22:17:51 145.826/435.025
UWE-3 02 Dec 22:16:07 22:16:25 10° 273° (W) 22:16:42 435.000/436.395/437.385
AISAT 02 Dec 22:27:54 22:30:04 14° 59° (ENE) 22:32:15 437.250
DELFI C3 02 Dec 22:28:49 22:32:00 23° 266° (W) 22:35:12 145.870
YUBILEINY 02 Dec 22:30:56 22:36:52 20° 302° (WNW) 22:42:53 435.215
SO-50 02 Dec 22:49:42 22:54:08 38° 314° (NW) 22:58:31 436.795
ISS 02 Dec 22:57:09 23:00:16 36° 18° (NNE) 23:03:22 145.825
CUBEBUG 1 02 Dec 23:01:43 23:05:41 36° 69° (ENE) 23:09:43 437.445
VELOX 1 02 Dec 23:03:14 23:06:57 27° 66° (ENE) 23:10:41 145.980
UNISAT 6 02 Dec 23:05:34 23:10:04 85° 101° (E) 23:14:25 437.425
QB50P1 02 Dec 23:14:00 23:15:36 12° 89° (E) 23:17:11 145.935-145.965
DUCHIFAT 1 02 Dec 23:21:00 23:22:40 12° 89° (E) 23:24:18 145.980
50 SAT 02 Dec 23:26:14 23:29:23 32° 70° (ENE) 23:32:34 437.505
HUMSAT D 02 Dec 23:28:50 23:30:28 12° 271° (W) 23:32:05 437.325/437.525
DX 1 02 Dec 23:28:52 23:32:34 28° 66° (ENE) 23:36:17 434.975-435.025
Cosmos 2499 02 Dec 23:29:36 23:31:14 11° 69° (ENE) 23:32:53 435.465 / 435.565
POPSAT HIP 1 02 Dec 23:33:54 23:36:59 19° 92° (E) 23:40:03 437.405
TIGRISAT 02 Dec 23:36:56 23:41:15 49° 289° (WNW) 23:45:26 435.000
ANTELSAT 02 Dec 23:37:26 23:41:43 46° 289° (WNW) 23:45:52 437.575/2403.000
ESTCUBE 1 02 Dec 23:39:34 23:43:58 57° 259° (W) 23:48:24 437.505/2401.250
PRISM 02 Dec 23:43:12 23:44:05 11° 301° (WNW) 23:44:58 437.425
UKube-1 02 Dec 23:43:15 23:46:59 29° 67° (ENE) 23:50:43 .
AISAT 03 Dec 00:01:32 00:05:56 74° 256° (WSW) 00:10:24 437.250
SPROUT 03 Dec 00:02:59 00:07:16 72° 74° (ENE) 00:11:35 437.525
TISAT 1 03 Dec 00:04:32 00:06:52 15° 61° (ENE) 00:09:13 437.305
Cosmos 2504 03 Dec 00:06:53 00:08:28 11° 313° (NW) 00:10:04 435.465 / 435.565
JAS-2 03 Dec 00:22:51 00:28:05 81° 104° (ESE) 00:33:23 435.910
M-CUBED/EXP-1 PRIME 03 Dec 00:23:27 00:24:28 11° 50° (NE) 00:25:28 437.505
NANOSAT C BR1 03 Dec 00:30:23 00:34:39 74° 103° (ESE) 00:38:52 145.865
BUGSAT 1 03 Dec 00:31:24 00:35:00 27° 95° (E) 00:38:33 437.445
QB50P2 03 Dec 00:32:38 00:36:55 89° 103° (ESE) 00:41:09 145.880/145.840
POLYITAN 1 03 Dec 00:33:17 00:37:34 86° 106° (ESE) 00:41:47 437.675
ISS 03 Dec 00:33:38 00:36:52 49° 216° (SW) 00:40:03 145.825
SO-50 03 Dec 00:34:56 00:35:56 11° 336° (NNW) 00:36:55 436.795
CUBEBUG 1 03 Dec 00:38:37 00:42:04 23° 266° (W) 00:45:34 437.445
VELOX 1 03 Dec 00:39:22 00:43:18 32° 264° (W) 00:47:17 145.980
UNISAT 6 03 Dec 00:44:27 00:46:04 12° 302° (WNW) 00:47:40 437.425
QB50P1 03 Dec 00:47:35 00:51:50 68° 286° (WNW) 00:56:01 145.935-145.965
DUCHIFAT 1 03 Dec 00:54:35 00:58:48 66° 286° (WNW) 01:02:57 145.980
50 SAT 03 Dec 01:00:31 01:02:48 16° 267° (W) 01:05:05 437.505
DX 1 03 Dec 01:04:51 01:08:40 30° 264° (W) 01:12:33 434.975-435.025
GONETS M04 03 Dec 01:07:07 01:15:18 47° 88° (E) 01:23:27
POPSAT HIP 1 03 Dec 01:08:56 01:12:57 41° 290° (WNW) 01:16:55 437.405
Cosmos 2499 03 Dec 01:14:02 01:22:13 56° 90° (E) 01:30:49 435.465 / 435.565
UKube-1 03 Dec 01:19:15 01:22:58 28° 264° (W) 01:26:43 .
SWISSCUBE 03 Dec 01:25:07 01:29:00 25° 64° (ENE) 01:32:53 437.505
BEESAT 03 Dec 01:29:34 01:33:26 25° 64° (ENE) 01:37:18 436.000
TISAT 1 03 Dec 01:37:49 01:42:00 62° 259° (WSW) 01:46:15 437.305
Oscar 19 03 Dec 01:40:18 01:45:03 35° 97° (E) 01:49:47 437.125/150
SPROUT 03 Dec 01:42:13 01:43:41 11° 272° (W) 01:45:09 437.525
AUBIESAT-1 03 Dec 01:44:59 01:48:57 52° 66° (ENE) 01:53:12 437.475
M-CUBED/EXP-1 PRIME 03 Dec 01:54:04 01:58:04 80° 70° (ENE) 02:02:28 437.505
ITUPSAT 1 03 Dec 01:54:05 01:58:32 40° 69° (ENE) 02:03:01 437.325
BUGSAT 1 03 Dec 02:06:41 02:10:20 29° 293° (WNW) 02:13:56 437.445
NANOSAT C BR1 03 Dec 02:07:59 02:09:47 12° 300° (WNW) 02:11:33 145.865
JAS-2 03 Dec 02:09:47 02:12:32 15° 303° (WNW) 02:15:17 435.910
QB50P2 03 Dec 02:11:09 02:12:01 11° 302° (WNW) 02:12:53 145.880/145.840
POLYITAN 1 03 Dec 02:11:32 02:12:40 11° 301° (WNW) 02:13:50 437.675
O/OREOS (USA 219) 03 Dec 02:12:08 02:16:10 31° 57° (ENE) 02:20:10 437.305
KKS-1 03 Dec 02:29:03 02:30:02 11° 57° (ENE) 02:31:01 437.445
PHONESAT 2.4 03 Dec 02:43:38 02:45:11 14° 159° (SSE) 02:46:45 2401.200-2431.200
Gurwin Techsat 1B 03 Dec 02:47:06 02:52:27 72° 103° (ESE) 02:57:45 435.225
AO-85 03 Dec 02:52:49 02:57:03 29° 116° (ESE) 03:01:02 145.980
AO-7 03 Dec 02:55:48 03:01:15 18° 89° (E) 03:06:40 29.400- 29.500
SWISSCUBE 03 Dec 03:02:05 03:06:34 40° 261° (W) 03:11:06 437.505
GONETS M04 03 Dec 03:04:02 03:12:11 42° 289° (WNW) 03:20:22
MOZHAYETS 4 03 Dec 03:06:03 03:10:29 50° 72° (ENE) 03:14:55
BEESAT 03 Dec 03:06:30 03:11:00 41° 262° (W) 03:15:32 436.000
Cosmos 2499 03 Dec 03:07:58 03:15:43 37° 292° (WNW) 03:23:50 435.465 / 435.565
Oscar 19 03 Dec 03:19:43 03:24:19 33° 294° (WNW) 03:28:54 437.125/150
AUBIESAT-1 03 Dec 03:21:09 03:23:43 16° 265° (W) 03:26:25 437.475
ITUPSAT 1 03 Dec 03:32:37 03:36:30 24° 266° (W) 03:40:25 437.325
M-CUBED/EXP-1 PRIME 03 Dec 03:32:41 03:33:13 10° 269° (W) 03:33:46 437.505
ITAMSAT 1 03 Dec 03:39:58 03:45:03 52° 100° (E) 03:50:05 435.822/435.867
O/OREOS (USA 219) 03 Dec 03:51:38 03:55:31 29° 255° (WSW) 03:59:21 437.305
SO-50 03 Dec 03:59:36 04:01:31 12° 27° (NNE) 04:03:25 436.795
KKS-1 03 Dec 04:01:22 04:05:50 84° 75° (ENE) 04:10:21 437.445
STARS 03 Dec 04:17:04 04:21:25 58° 72° (ENE) 04:25:47 437.465
PHONESAT 2.4 03 Dec 04:17:39 04:20:02 29° 175° (S) 04:22:24 2401.200-2431.200
Gurwin Techsat 1B 03 Dec 04:28:18 04:31:48 18° 301° (WNW) 04:35:19 435.225
AO-85 03 Dec 04:32:47 04:37:23 41° 312° (NW) 04:41:39 145.980
CUBESAT XI-V 03 Dec 04:36:18 04:40:49 62° 73° (ENE) 04:45:22 437.345
YUBILEINY 03 Dec 04:43:36 04:47:02 12° 50° (NE) 04:50:28 435.215
MOZHAYETS 4 03 Dec 04:44:44 04:47:55 18° 268° (W) 04:51:08
AO-7 03 Dec 04:46:45 04:55:11 84° 108° (ESE) 05:03:35 29.400- 29.500
BRITE-PL 03 Dec 04:49:06 04:52:47 19° 91° (E) 04:56:34 437.365/2234.400
HORYU 2 03 Dec 05:06:23 05:09:05 16° 91° (E) 05:11:44 437.375
ITAMSAT 1 03 Dec 05:20:09 05:24:11 23° 298° (WNW) 05:28:11 435.822/435.867
SO-50 03 Dec 05:38:38 05:43:04 50° 49° (NE) 05:47:26 436.795
KKS-1 03 Dec 05:42:14 05:43:00 10° 272° (W) 05:43:45 437.445
PHONESAT 2.4 03 Dec 05:52:43 05:54:57 23° 192° (SSW) 05:57:10 2401.200-2431.200
STARS 03 Dec 05:55:36 05:58:08 15° 269° (W) 06:00:41 437.465
Cosmos 2504 03 Dec 06:02:01 06:08:00 19° 57° (ENE) 06:13:48 435.465 / 435.565
BEESAT 3 03 Dec 06:04:01 06:07:25 30° 116° (ESE) 06:10:53 437.485
LilacSat-2 03 Dec 06:07:25 06:10:04 18° 92° (E) 06:12:41 437.200
NOAA 18 03 Dec 06:11:12 06:14:17 15° 89° (E) 06:17:21 137.9125
CUBESAT XI-V 03 Dec 06:16:02 06:18:37 15° 271° (W) 06:21:14 437.345
AO-85 03 Dec 06:18:16 06:18:55 10° 332° (NNW) 06:19:33 145.980
GOMX 1 03 Dec 06:19:26 06:24:44 53° 99° (E) 06:30:06 467.674
BEESAT 2 03 Dec 06:26:11 06:29:22 24° 114° (ESE) 06:32:36 435.950
BRITE-PL 03 Dec 06:26:22 06:31:37 67° 286° (WNW) 06:37:08 437.365/2234.400
CUTE-I 03 Dec 06:29:06 06:33:53 33° 96° (E) 06:38:39 437.470
YUBILEINY 03 Dec 06:37:34 06:46:14 56° 75° (ENE) 06:54:52 435.215
AO-7 03 Dec 06:40:31 06:47:04 27° 309° (NW) 06:53:37 29.400- 29.500
HORYU 2 03 Dec 06:41:37 06:45:59 55° 288° (WNW) 06:50:17 437.375
DOVE 4 03 Dec 06:47:07 06:52:12 43° 97° (E) 06:57:09 437.250
HO-68 03 Dec 06:51:35 06:54:08 12° 85° (E) 06:56:42 435.675
STRAND 1 03 Dec 06:52:18 06:57:21 62° 72° (ENE) 07:02:27 437.568
Cubesat XI-IV 03 Dec 06:53:40 06:58:56 53° 100° (E) 07:04:07 437.490
CINEMA 3 03 Dec 06:54:41 06:56:52 13° 87° (E) 06:59:00 145.822/145.860
NOAA 15 03 Dec 07:02:34 07:07:51 71° 103° (ESE) 07:13:07 137.62
Cosmos 2491 03 Dec 07:06:51 07:14:48 40° 86° (E) 07:22:43 435.465 / 435.565
SO-50 03 Dec 07:19:48 07:23:12 21° 248° (WSW) 07:26:34 436.795
AIST 1 03 Dec 07:23:09 07:27:21 41° 76° (ENE) 07:31:32
LilacSat-2 03 Dec 07:41:01 07:44:28 34° 290° (WNW) 07:47:54 437.200
BEESAT 3 03 Dec 07:41:31 07:45:01 30° 315° (NW) 07:48:33 437.485
RS-15 03 Dec 07:44:49 07:55:25 42° 108° (ESE) 08:06:27 29.354- 29.394
NOAA 18 03 Dec 07:50:01 07:55:36 81° 287° (WNW) 08:01:07 137.9125
Cosmos 2504 03 Dec 07:54:05 08:03:03 79° 81° (E) 08:11:31 435.465 / 435.565
CUTE 1.7 + AOD 2 03 Dec 07:57:18 08:01:01 30° 96° (E) 08:04:44 437.475
GOMX 1 03 Dec 07:58:09 08:02:28 25° 296° (WNW) 08:06:51 467.674
BEESAT 2 03 Dec 08:03:19 08:06:59 36° 313° (NW) 08:10:44 435.950
BRITE-PL 03 Dec 08:07:50 08:09:12 11° 303° (WNW) 08:10:37 437.365/2234.400
CUTE-I 03 Dec 08:09:06 08:13:56 36° 294° (WNW) 08:18:45 437.470
CANX-2 03 Dec 08:14:20 08:18:28 53° 100° (E) 08:22:36 2200.000
UWE-3 03 Dec 08:23:49 08:26:29 16° 90° (E) 08:29:05 435.000/436.395/437.385
DOVE 4 03 Dec 08:25:08 08:29:39 29° 295° (WNW) 08:34:06 437.250
AIST 2 03 Dec 08:26:22 08:28:04 12° 109° (ESE) 08:29:45 435.215
CINEMA 3 03 Dec 08:29:42 08:34:38 77° 284° (WNW) 08:39:19 145.822/145.860
UNISAT 6 03 Dec 08:32:18 08:34:13 12° 59° (ENE) 08:36:09 437.425
STRAND 1 03 Dec 08:33:30 08:36:58 18° 269° (W) 08:40:26 437.568
Cubesat XI-IV 03 Dec 08:34:29 08:38:39 24° 298° (WNW) 08:42:48 437.490
YUBILEINY 03 Dec 08:34:56 08:42:39 36° 276° (W) 08:50:22 435.215
HO-68 03 Dec 08:35:56 08:43:09 69° 104° (ESE) 08:50:19 435.675
AAUSAT CUBESAT 2 03 Dec 08:36:45 08:40:20 28° 95° (E) 08:43:56 437.432
NOAA 15 03 Dec 08:43:34 08:47:03 18° 301° (WNW) 08:50:33 137.62
SEEDS 03 Dec 08:46:36 08:50:46 71° 102° (ESE) 08:54:57 437.485
PRISM 03 Dec 08:56:08 09:00:11 79° 75° (ENE) 09:04:17 437.425
TIGRISAT 03 Dec 09:01:26 09:04:58 22° 64° (ENE) 09:08:30 435.000
AIST 1 03 Dec 09:01:32 09:04:37 19° 274° (W) 09:07:43
ANTELSAT 03 Dec 09:01:54 09:05:33 23° 65° (ENE) 09:09:11 437.575/2403.000
Cosmos 2491 03 Dec 09:03:00 09:11:27 50° 287° (WNW) 09:19:55 435.465 / 435.565
COMPASS 1 03 Dec 09:03:16 09:07:25 73° 101° (ESE) 09:11:34 437.405
CUBEBUG 2 03 Dec 09:09:34 09:14:03 74° 101° (ESE) 09:18:22 437.445
ZACube-1 03 Dec 09:11:27 09:15:14 30° 95° (E) 09:18:55 437.345
FUNcube-1 03 Dec 09:20:57 09:24:53 35° 96° (E) 09:28:42 145.935
NOAA 18 03 Dec 09:32:37 09:35:23 14° 306° (NW) 09:38:10 137.9125
CUTE 1.7 + AOD 2 03 Dec 09:33:15 09:36:47 26° 293° (WNW) 09:40:18 437.475
Cosmos 2504 03 Dec 09:48:45 09:55:24 25° 282° (WNW) 10:01:51 435.465 / 435.565
CANX-2 03 Dec 09:51:19 09:53:56 16° 297° (WNW) 09:56:31 2200.000
RS-15 03 Dec 09:55:28 10:07:18 68° 312° (NW) 10:19:40 29.354- 29.394
Oscar 11 03 Dec 09:55:31 09:59:51 81° 103° (ESE) 10:04:09 145.826/435.025
UWE-3 03 Dec 09:59:02 10:03:17 51° 288° (WNW) 10:07:25 435.000/436.395/437.385
AIST 2 03 Dec 10:01:50 10:05:56 74° 307° (NW) 10:10:07 435.215
DELFI C3 03 Dec 10:03:15 10:06:55 35° 97° (E) 10:10:34 145.870
UNISAT 6 03 Dec 10:05:31 10:10:14 89° 258° (WSW) 10:14:56 437.425
QB50P1 03 Dec 10:08:27 10:10:25 13° 60° (ENE) 10:12:23 145.935-145.965
CINEMA 3 03 Dec 10:09:29 10:10:50 11° 304° (NW) 10:12:10 145.822/145.860
AAUSAT CUBESAT 2 03 Dec 10:12:16 10:15:45 26° 292° (WNW) 10:19:13 437.432
DUCHIFAT 1 03 Dec 10:14:55 10:16:52 13° 60° (ENE) 10:18:49 145.980
SEEDS 03 Dec 10:24:08 10:25:55 12° 299° (WNW) 10:27:41 437.485
HO-68 03 Dec 10:24:28 10:30:19 28° 303° (WNW) 10:36:09 435.675
POPSAT HIP 1 03 Dec 10:28:18 10:31:25 20° 64° (ENE) 10:34:32 437.405
JAS-2 03 Dec 10:36:25 10:42:36 46° 69° (ENE) 10:48:07 435.910
TIGRISAT 03 Dec 10:36:49 10:41:21 47° 261° (W) 10:45:52 435.000
CUSAT 1 03 Dec 10:37:29 10:40:54 78° 283° (WNW) 10:43:43 437.405
ANTELSAT 03 Dec 10:37:30 10:41:59 44° 262° (W) 10:46:28 437.575/2403.000
COMPASS 1 03 Dec 10:40:47 10:42:24 12° 299° (WNW) 10:44:02 437.405
ZACube-1 03 Dec 10:47:51 10:51:25 26° 294° (WNW) 10:54:56 437.345
CUBEBUG 2 03 Dec 10:47:55 10:50:02 13° 301° (WNW) 10:52:06 437.445
DANDE 03 Dec 10:51:11 10:55:47 38° 98° (E) 10:59:20 436.750
FUNcube-1 03 Dec 10:57:35 11:00:56 23° 295° (WNW) 11:04:14 145.935
Cosmos 2499 03 Dec 11:03:45 11:10:31 24° 61° (ENE) 11:16:59 435.465 / 435.565
HUMSAT D 03 Dec 11:07:02 11:11:08 84° 281° (W) 11:15:11 437.325/437.525
Cosmos 2491 03 Dec 11:09:11 11:10:58 11° 312° (NW) 11:12:44 435.465 / 435.565
GONETS M04 03 Dec 11:14:50 11:21:50 26° 63° (ENE) 11:28:48
PCSat 03 Dec 11:17:13 11:18:13 10° 101° (E) 11:19:12 145.827
AO-85 03 Dec 11:22:14 11:26:02 37° 47° (NE) 11:29:40 145.980
BUGSAT 1 03 Dec 11:22:51 11:26:20 25° 66° (ENE) 11:29:50 437.445
NANOSAT C BR1 03 Dec 11:23:52 11:28:06 69° 74° (ENE) 11:32:23 145.865
QB50P2 03 Dec 11:26:36 11:30:53 84° 73° (ENE) 11:35:12 145.880/145.840
POLYITAN 1 03 Dec 11:27:13 11:31:30 81° 77° (ENE) 11:35:50 437.675
ESTCUBE 1 03 Dec 11:30:18 11:34:04 25° 94° (E) 11:37:48 437.505/2401.250
Oscar 11 03 Dec 11:33:49 11:35:20 12° 300° (WNW) 11:36:51 145.826/435.025
DELFI C3 03 Dec 11:38:33 11:41:31 20° 294° (WNW) 11:44:28 145.870
QB50P1 03 Dec 11:41:20 11:45:37 72° 259° (W) 11:49:55 145.935-145.965
AIST 2 03 Dec 11:43:00 11:45:10 14° 327° (NNW) 11:47:20 435.215
UNISAT 6 03 Dec 11:47:07 11:47:35 10° 273° (W) 11:48:02 437.425
DUCHIFAT 1 03 Dec 11:47:44 11:51:59 72° 258° (WSW) 11:56:15 145.980
SPROUT 03 Dec 11:49:33 11:50:26 11° 88° (E) 11:51:18 437.525
AISAT 03 Dec 11:50:29 11:53:37 18° 92° (E) 11:56:44 437.250
POPSAT HIP 1 03 Dec 12:02:49 12:06:54 43° 261° (W) 12:11:01 437.405
RS-15 03 Dec 12:12:01 12:22:39 33° 343° (NNW) 12:33:31 29.354- 29.394
JAS-2 03 Dec 12:22:00 12:27:46 31° 264° (W) 12:33:01 435.910
50 SAT 03 Dec 12:23:28 12:26:35 28° 97° (E) 12:29:41 437.505
CUBEBUG 1 03 Dec 12:23:54 12:28:17 56° 100° (E) 12:32:39 437.445
VELOX 1 03 Dec 12:26:49 12:31:03 40° 98° (E) 12:35:15 145.980
Gurwin Techsat 1B 03 Dec 12:32:10 12:36:03 21° 61° (ENE) 12:39:57 435.225
DANDE 03 Dec 12:35:17 12:38:25 18° 286° (WNW) 12:41:04 436.750
DX 1 03 Dec 12:50:24 12:54:32 38° 98° (E) 12:58:37 434.975-435.025
PCSat 03 Dec 12:55:14 13:00:37 75° 119° (ESE) 13:06:04 145.827
Cosmos 2499 03 Dec 12:56:03 13:04:50 83° 264° (W) 13:13:00 435.465 / 435.565
BUGSAT 1 03 Dec 12:57:47 13:01:33 32° 263° (W) 13:05:24 437.445
Oscar 19 03 Dec 12:58:56 13:03:58 62° 72° (ENE) 13:09:04 437.125/150
NANOSAT C BR1 03 Dec 13:02:43 13:04:18 12° 271° (W) 13:05:54 145.865
AO-85 03 Dec 13:03:07 13:06:11 22° 246° (WSW) 13:09:11 145.980
UKube-1 03 Dec 13:03:36 13:07:41 39° 98° (E) 13:11:45 .
ESTCUBE 1 03 Dec 13:06:50 13:10:55 35° 291° (WNW) 13:15:00 437.505/2401.250
POLYITAN 1 03 Dec 13:07:46 13:07:52 10° 272° (W) 13:07:57 437.675
GONETS M04 03 Dec 13:10:55 13:19:37 77° 265° (W) 13:28:18
TISAT 1 03 Dec 13:20:36 13:23:27 17° 92° (E) 13:26:16 437.305
SPROUT 03 Dec 13:22:34 13:26:53 77° 286° (WNW) 13:31:10 437.525
ITAMSAT 1 03 Dec 13:23:20 13:26:15 15° 57° (ENE) 13:29:10 435.822/435.867
AISAT 03 Dec 13:26:00 13:30:20 48° 289° (WNW) 13:34:37 437.250
AO-7 03 Dec 13:56:35 14:03:46 34° 55° (NE) 14:10:59 29.400- 29.500
50 SAT 03 Dec 13:57:05 13:59:43 20° 293° (WNW) 14:02:21 437.505
CUBEBUG 1 03 Dec 14:01:16 14:04:09 17° 298° (WNW) 14:07:01 437.445
VELOX 1 03 Dec 14:03:47 14:07:16 23° 296° (WNW) 14:10:45 145.980
Gurwin Techsat 1B 03 Dec 14:10:18 14:15:32 61° 258° (WSW) 14:20:50 435.225
BEESAT 3 03 Dec 14:18:43 14:22:26 36° 47° (NE) 14:26:07 437.485
DX 1 03 Dec 14:27:02 14:30:30 23° 295° (WNW) 14:33:58 434.975-435.025
RS-15 03 Dec 14:29:08 14:39:58 33° 17° (NNE) 14:50:43 29.354- 29.394
UKube-1 03 Dec 14:40:08 14:43:29 22° 296° (WNW) 14:46:50 .
Oscar 19 03 Dec 14:40:18 14:43:44 18° 269° (W) 14:47:10 437.125/150
PCSat 03 Dec 14:40:22 14:44:36 23° 319° (NW) 14:48:53 145.827
BEESAT 2 03 Dec 14:41:29 14:45:06 30° 45° (NE) 14:48:42 435.950
Cosmos 2499 03 Dec 14:51:14 14:56:29 18° 286° (WNW) 15:01:34 435.465 / 435.565
TISAT 1 03 Dec 14:55:15 14:59:19 45° 289° (WNW) 15:03:20 437.305
AUBIESAT-1 03 Dec 14:55:50 14:59:56 30° 100° (E) 15:03:54 437.475
ITAMSAT 1 03 Dec 14:59:47 15:05:01 85° 257° (WSW) 15:10:16 435.822/435.867
SWISSCUBE 03 Dec 14:59:54 15:04:26 42° 99° (E) 15:08:56 437.505
BEESAT 03 Dec 15:04:16 15:08:48 42° 99° (E) 15:13:18 436.000
M-CUBED/EXP-1 PRIME 03 Dec 15:05:15 15:09:48 46° 104° (ESE) 15:14:12 437.505
GONETS M04 03 Dec 15:10:13 15:14:52 16° 286° (WNW) 15:19:33
ITUPSAT 1 03 Dec 15:29:49 15:34:35 73° 102° (ESE) 15:39:20 437.325
AO-7 03 Dec 15:47:51 15:56:03 64° 255° (WSW) 16:04:21 29.400- 29.500
KKS-1 03 Dec 15:51:52 15:54:13 14° 90° (E) 15:56:32 437.445
BEESAT 3 03 Dec 15:56:38 15:59:55 25° 245° (WSW) 16:03:11 437.485
BRITE-PL 03 Dec 16:02:45 16:05:53 20° 63° (ENE) 16:09:11 437.365/2234.400
HORYU 2 03 Dec 16:06:04 16:09:19 20° 63° (ENE) 16:12:35 437.375
CUTE-I 03 Dec 16:17:38 16:18:54 11° 53° (NE) 16:20:09 437.470
BEESAT 2 03 Dec 16:19:18 16:22:52 31° 244° (WSW) 16:26:26 435.950
O/OREOS (USA 219) 03 Dec 16:26:50 16:30:31 24° 103° (ESE) 16:34:11 437.305
AUBIESAT-1 03 Dec 16:30:08 16:34:17 33° 298° (WNW) 16:38:21 437.475
CUBESAT XI-V 03 Dec 16:32:21 16:34:39 13° 89° (E) 16:36:56 437.345
MOZHAYETS 4 03 Dec 16:35:50 16:40:25 90° 326° (NNW) 16:44:58
SWISSCUBE 03 Dec 16:38:12 16:41:59 24° 296° (WNW) 16:45:45 437.505
Cubesat XI-IV 03 Dec 16:40:13 16:43:34 17° 58° (ENE) 16:46:54 437.490
ITAMSAT 1 03 Dec 16:43:42 16:45:14 11° 273° (W) 16:46:47 435.822/435.867
